sat.trackr.live / text

‹ back to catalog

UNKNOWN

NORAD 82223

UNKNOWN UNKNOWN UNKNOWN

§ Identity

Operator
Country
Launch date
Launch site
Launch vehicle
Mass (kg)
RCS (m²)

External: N2YO · Heavens-Above

§ Orbital elements

Epoch: 2026-09-15T22:39:40.491360Z

Period
101.91 min
Inclination
99.3000°
Eccentricity
0.0067954
Mean motion
14.13019922 rev/d
Perigee alt
799.9 km
Apogee alt
898.2 km
Semi-major
7,227.2 km
B*
7.5348e-4
RAAN
160.7060°
Arg perigee
293.3956°
Mean anomaly
66.0078°
Rev number
48,792

§ Raw data

UNKNOWN1 82223U          26258.94421865  .00001388  00000+0  75348-3 0  99982 82223  99.3000 160.7060 0067954 293.3956  66.0078 14.13019922487927

JSON: /api/v1/satellites/82223 · /tle

For live sub-satellite position, see the globe view (requires WebGL).

§ Visibility from observer

Set your observer location to see the next 7 days of passes ≥ 10°. The values pass through the URL so the page stays shareable.

No JS? Fill the form by hand. The geolocation button needs JavaScript.